Cosmos 2233 Rocket - Orbit

View from above orbital plane
View from above orbital plane
View from above satellite
View from above satellite

Ground track
Ground track

The orbit data is extracted from the following two-line orbital elements,

1 22488U 93008B   13169.17974375  .00000054  00000-0  38687-4 0  6438
2 22488 082.9443 084.8276 0025117 359.8337 150.1563 13.77580839 23237
Epoch (UTC): 18 June 2013 04:18:49
Eccentricity: 0.0025117
inclination: 82.9443°
perigee height: 954 km
apogee height: 991 km
right ascension of ascending node: 84.8276°
argument of perigee: 359.8337°
revolutions per day: 13.77580839
mean anomaly at epoch: 150.1563°
orbit number at epoch: 2323

The dashed part of the orbit path shows where the satellite is in the earth's shadow,  

Developed and maintained by Chris Peat, Heavens-Above GmbH. Please read the updated FAQ before sending e-mail. Imprint. DLR